User: anonymous   Login
Location: Lawrence Hall of Science
(37.8785°N, 122.2415°W)
Time: 10:36:46
(UTC-07:00)
Language:

Cosmos 1461 - Orbit

View from above orbital plane
View from above orbital plane
View from above satellite
View from above satellite

Ground track
Ground track

The orbit data is extracted from the following two-line orbital elements,

1 14064U 83044A   16144.89551334  .00000601  00000-0  66267-4 0  9996
2 14064  65.0023  48.6861 0111798 208.6133 150.8819 14.92974892665224
Epoch (UTC): 23 May 2016 21:29:32
Eccentricity: 0.0111798
inclination: 65.0023°
perigee height: 511 km
apogee height: 666 km
right ascension of ascending node: 48.6861°
argument of perigee: 208.6133°
revolutions per day: 14.92974892
mean anomaly at epoch: 150.8819°
orbit number at epoch: 66522

The dashed part of the orbit path shows where the satellite is in the earth's shadow,  

DLR